Weather History for Key West NAF, FL

Change the Weather History Date:

Sunday, March 10, 2013

  Actual Average Record
Temperature  
Mean Temperature 70 °F -  
Max Temperature 77 °F 77 °F 84 °F (1992)
Min Temperature 64 °F 67 °F 58 °F (1965)
Cooling Degree Days 6    
Growing Degree Days 20 (Base 50)    
Moisture  
Dew Point 57 °F    
Average Humidity 62    
Maximum Humidity 88    
Minimum Humidity 48    
Precipitation  
Precipitation 0.00 in - - ()
Sea Level Pressure  
Sea Level Pressure 30.08 in    
Wind  
Wind Speed 12 mph (East)    
Max Wind Speed 20 mph    
Max Gust Speed 25 mph    
Visibility 10 miles    
Events      
Averages and records for this station are not official NWS values.
T = Trace of Precipitation, MM = Missing Value Source: NWS Daily Summary

Daily Weather History Graph

Daily Weather History Graph

Search for Another Location

Airport:

Trip Planner

Search our weather history database for the weather conditions in past years. The results will help you decide how hot, cold, wet, or windy it might be!

Date:

Astronomy

Mar. 10, 2013 Rise Set
Actual Time 7:40 AM EDT 7:33 PM EDT
Civil Twilight 7:17 AM EDT 7:56 PM EDT
Nautical Twilight 6:51 AM EDT 8:22 PM EDT
Astronomical Twilight 6:24 AM EDT 8:49 PM EDT
Moon 6:35 AM EDT (3/10) 6:40 PM EDT (3/10)
Length of Visible Light 12h 38m
Length of Day
11h 53m
Waning Crescent, 2% of the Moon is Illuminated
Mar 10
Waning Crescent
Mar 11
New
Mar 19
First Quarter
Mar 27
Full
Apr 3
Last Quarter

Hourly Weather History & Observations

Time (EDT) Temp. Dew Point Humidity Pressure Visibility Wind Dir Wind Speed Gust Speed Precip Events Conditions
12:53 AM 66.9 °F 57.9 °F 73% 30.13 in 10.0 mi ENE 10.4 mph - N/A   Clear
1:53 AM 66.9 °F 59.0 °F 76% 30.09 in 10.0 mi ENE 10.4 mph - N/A   Clear
3:53 AM 66.0 °F 59.0 °F 78% 30.07 in 10.0 mi NE 8.1 mph - N/A   Clear
4:53 AM 66.0 °F 57.9 °F 75% 30.07 in 10.0 mi NE 5.8 mph - N/A   Partly Cloudy
5:53 AM 64.9 °F 53.1 °F 65% 30.07 in 10.0 mi NE 6.9 mph - N/A   Partly Cloudy
6:02 AM 64.4 °F 60.8 °F 88% 30.07 in 10.0 mi ENE 5.8 mph - N/A   Partly Cloudy
6:53 AM 66.0 °F 59.0 °F 78% 30.07 in 10.0 mi ENE 5.8 mph - N/A   Clear
7:53 AM 66.9 °F 54.0 °F 63% 30.08 in 10.0 mi East 11.5 mph - N/A   Partly Cloudy
8:53 AM 70.0 °F 54.0 °F 57% 30.09 in 10.0 mi East 15.0 mph 21.9 mph N/A   Scattered Clouds
9:53 AM 73.0 °F 54.0 °F 51% 30.10 in 10.0 mi East 16.1 mph - N/A   Partly Cloudy
10:53 AM 75.0 °F 55.9 °F 51% 30.11 in 10.0 mi East 15.0 mph 25.3 mph N/A   Scattered Clouds
11:53 AM 75.0 °F 55.0 °F 50% 30.11 in 10.0 mi East 18.4 mph - N/A   Scattered Clouds
12:53 PM 75.9 °F 55.9 °F 50% 30.11 in 10.0 mi East 19.6 mph 23.0 mph N/A   Scattered Clouds
1:53 PM 77.0 °F 55.9 °F 48% 30.09 in 10.0 mi East 17.3 mph - N/A   Scattered Clouds
2:53 PM 77.0 °F 55.9 °F 48% 30.08 in 10.0 mi East 16.1 mph - N/A   Scattered Clouds
3:53 PM 75.9 °F 57.0 °F 52% 30.05 in 10.0 mi East 18.4 mph 24.2 mph N/A   Scattered Clouds
4:53 PM 75.9 °F 57.0 °F 52% 30.03 in 10.0 mi East 17.3 mph - N/A   Scattered Clouds
5:53 PM 73.9 °F 57.9 °F 57% 30.03 in 10.0 mi ESE 17.3 mph - N/A   Scattered Clouds
6:53 PM 73.0 °F 57.9 °F 59% 30.04 in 10.0 mi East 16.1 mph - N/A   Scattered Clouds
7:53 PM 71.1 °F 57.9 °F 63% 30.05 in 9.0 mi East 12.7 mph - N/A   Scattered Clouds
8:53 PM 71.1 °F 59.0 °F 66% 30.06 in 10.0 mi East 13.8 mph - N/A   Scattered Clouds
9:53 PM 71.1 °F 59.0 °F 66% 30.07 in 10.0 mi East 16.1 mph - N/A   Scattered Clouds
10:53 PM 71.1 °F 57.0 °F 61% 30.08 in 10.0 mi ESE 15.0 mph - N/A   Partly Cloudy
11:53 PM 71.1 °F 59.0 °F 66% 30.08 in 10.0 mi ESE 13.8 mph - N/A   Partly Cloudy
12:53 AM 71.1 °F 57.0 °F 61% 30.06 in 10.0 mi ESE 16.1 mph - N/A   Partly Cloudy